Location: �clusier
(49.9361°N, 2.7869°E)
Time: 08:28:05
(UTC+00:00)

In-Cosmos 22 - Pass Details

Date: 16 June 2021
Orbit: 786 x 876 km, 81.2° (Epoch: 31 July)

Event Time Altitude Azimuth Distance (km) Brightness Sun altitude
Rises 21:00:47 0° 188° (S) 3,273 6.9 -7.7°
Reaches altitude 10° 21:03:09 10° 188° (S) 2,344 6.1 -7.9°
Maximum altitude 21:08:25 84° 101° (E) 797 4.1 -8.4°
Drops below altitude 10° 21:13:45 10° 13° (NNE) 2,365 7.2 -8.9°
Sets 21:16:08 0° 13° (NNE) 3,305 8.0 -9.2°
